Location: Dead Woman Crossing
(43.5369°N, 106.3228°W)
Time: 02:34:48
(UTC+00:00)

UWE-3 - Pass Details

Date: 05 July 2022
Orbit: 583 x 677 km, 97.7° (Epoch: 11 August)

Event Time Altitude Azimuth Distance (km) Brightness Sun altitude
Rises 10:04:46 0° 19° (NNE) 2,916 ? -12.5°
Reaches altitude 10° 10:07:02 10° 25° (NNE) 2,020 ? -12.2°
Maximum altitude 10:11:15 45° 99° (E) 885 ? -11.7°
Drops below altitude 10° 10:15:34 10° 172° (S) 2,059 ? -11.2°
Enters shadow 10:16:50 - 176° (S) 2,558 ? -11.1°
